UKV3091 PAEN-PANC

Flight info

Callsign UKV3091
Flight time 0h 24m
Altitude 9000
Route ENA TED
Aircraft DHC6/L-SDGRY/S

Departure

Time 2026-05-05 21:08
Airport Kenai Municipal Airport (PAEN)

Arrival

Time 2026-05-05 21:32
Airport Ted Stevens Anchorage International Airport (PANC)
Time Latitude Longitude Altitude Speed Heading
2026-05-05 20:55 60.56905 -151.24294 94 ft 0 kts 123°
2026-05-05 21:04 60.56902 -151.24293 94 ft 1 kts 180°
2026-05-05 21:04 60.56902 -151.24337 94 ft 6 kts 282°
2026-05-05 21:04 60.56916 -151.24386 94 ft 4 kts 294°
2026-05-05 21:05 60.56905 -151.24464 94 ft 9 kts 223°
2026-05-05 21:05 60.56839 -151.24547 94 ft 13 kts 211°
2026-05-05 21:05 60.56756 -151.24649 94 ft 15 kts 213°
2026-05-05 21:05 60.56663 -151.24765 94 ft 16 kts 206°
2026-05-05 21:06 60.56562 -151.24889 93 ft 17 kts 213°
2026-05-05 21:06 60.56427 -151.25099 93 ft 31 kts 225°
2026-05-05 21:06 60.56300 -151.25395 92 ft 24 kts 229°
2026-05-05 21:06 60.56263 -151.25630 92 ft 15 kts 289°
2026-05-05 21:07 60.56324 -151.25783 92 ft 14 kts 346°
2026-05-05 21:07 60.56479 -151.25630 91 ft 54 kts 30°
2026-05-05 21:07 60.56965 -151.25039 140 ft 101 kts 31°
2026-05-05 21:07 60.57593 -151.24199 427 ft 111 kts 36°
2026-05-05 21:08 60.58200 -151.23205 766 ft 114 kts 39°
2026-05-05 21:08 60.58848 -151.22164 1043 ft 121 kts 25°
2026-05-05 21:08 60.59599 -151.21674 1517 ft 108 kts 26°
2026-05-05 21:08 60.60232 -151.20921 1893 ft 108 kts 27°
2026-05-05 21:09 60.60903 -151.20147 2258 ft 111 kts 30°
2026-05-05 21:09 60.61569 -151.19312 2569 ft 117 kts 40°
2026-05-05 21:09 60.62252 -151.18340 2788 ft 122 kts 25°
2026-05-05 21:09 60.63015 -151.17565 3108 ft 124 kts 31°
2026-05-05 21:10 60.63760 -151.16691 3449 ft 126 kts 31°
2026-05-05 21:10 60.64537 -151.15785 3808 ft 128 kts 30°
2026-05-05 21:10 60.65317 -151.14871 4081 ft 136 kts 31°
2026-05-05 21:10 60.66169 -151.13843 4213 ft 148 kts 31°
2026-05-05 21:11 60.67069 -151.12761 4374 ft 152 kts 31°
2026-05-05 21:11 60.67947 -151.11709 4778 ft 139 kts 31°
2026-05-05 21:11 60.68774 -151.10727 5022 ft 145 kts 31°
2026-05-05 21:11 60.69689 -151.09621 5039 ft 159 kts 32°
2026-05-05 21:12 60.70590 -151.08530 5493 ft 142 kts 32°
2026-05-05 21:12 60.71415 -151.07546 5970 ft 134 kts 31°
2026-05-05 21:12 60.72201 -151.06606 6414 ft 129 kts 32°
2026-05-05 21:12 60.72967 -151.05694 6840 ft 127 kts 32°
2026-05-05 21:13 60.73722 -151.04786 7258 ft 125 kts 32°
2026-05-05 21:13 60.74470 -151.03891 7667 ft 124 kts 32°
2026-05-05 21:13 60.75216 -151.03002 8063 ft 124 kts 32°
2026-05-05 21:13 60.75960 -151.02120 8456 ft 123 kts 31°
2026-05-05 21:14 60.76700 -151.01244 8831 ft 123 kts 32°
2026-05-05 21:14 60.77473 -151.00316 9021 ft 139 kts 32°
2026-05-05 21:14 60.78351 -150.99247 9064 ft 157 kts 32°
2026-05-05 21:14 60.79318 -150.98075 9240 ft 159 kts 32°
2026-05-05 21:15 60.80251 -150.96951 9507 ft 157 kts 32°
2026-05-05 21:15 60.81209 -150.95793 9639 ft 164 kts 32°
2026-05-05 21:15 60.82209 -150.94579 9749 ft 169 kts 32°
2026-05-05 21:15 60.83231 -150.93344 9870 ft 172 kts 32°
2026-05-05 21:16 60.84270 -150.92081 9951 ft 176 kts 32°
2026-05-05 21:16 60.85340 -150.90784 9963 ft 181 kts 32°
2026-05-05 21:16 60.86437 -150.89452 9949 ft 185 kts 32°
2026-05-05 21:16 60.87543 -150.88110 9945 ft 183 kts 31°
2026-05-05 21:17 60.88644 -150.86777 9802 ft 185 kts 32°
2026-05-05 21:17 60.89756 -150.85417 9622 ft 186 kts 32°
2026-05-05 21:17 60.90878 -150.84049 9463 ft 188 kts 32°
2026-05-05 21:17 60.92003 -150.82682 9288 ft 188 kts 32°
2026-05-05 21:18 60.93127 -150.81310 9103 ft 188 kts 32°
2026-05-05 21:18 60.94255 -150.79936 8913 ft 189 kts 32°
2026-05-05 21:18 60.95383 -150.78557 8718 ft 189 kts 32°
2026-05-05 21:18 60.96495 -150.77133 8516 ft 188 kts 32°
2026-05-05 21:19 60.97649 -150.75844 8309 ft 189 kts 28°
2026-05-05 21:19 60.98818 -150.74596 8101 ft 189 kts 28°
2026-05-05 21:19 60.99946 -150.73395 7879 ft 172 kts 28°
2026-05-05 21:19 61.00970 -150.72298 7445 ft 163 kts 28°
2026-05-05 21:20 61.01966 -150.71235 6875 ft 162 kts 28°
2026-05-05 21:20 61.02967 -150.70158 6247 ft 163 kts 28°
2026-05-05 21:20 61.03968 -150.69077 5628 ft 162 kts 28°
2026-05-05 21:20 61.04962 -150.67999 5013 ft 161 kts 28°
2026-05-05 21:21 61.05952 -150.66918 4395 ft 166 kts 28°
2026-05-05 21:21 61.07036 -150.65739 3818 ft 172 kts 28°
2026-05-05 21:21 61.08063 -150.64613 3224 ft 164 kts 28°
2026-05-05 21:21 61.09073 -150.63507 2803 ft 166 kts 28°
2026-05-05 21:22 61.10098 -150.62383 2566 ft 164 kts 28°
2026-05-05 21:22 61.11091 -150.61292 2318 ft 160 kts 28°
2026-05-05 21:22 61.12064 -150.60225 2055 ft 158 kts 28°
2026-05-05 21:22 61.13008 -150.59186 1965 ft 147 kts 28°
2026-05-05 21:23 61.13884 -150.58226 1957 ft 138 kts 28°
2026-05-05 21:23 61.14715 -150.57314 1952 ft 133 kts 27°
2026-05-05 21:23 61.15521 -150.56434 1950 ft 129 kts 28°
2026-05-05 21:23 61.16310 -150.55569 1943 ft 126 kts 28°
2026-05-05 21:24 61.16852 -150.54174 1768 ft 137 kts 78°
2026-05-05 21:24 61.16873 -150.52246 1757 ft 130 kts 86°
2026-05-05 21:24 61.16918 -150.50300 1852 ft 140 kts 88°
2026-05-05 21:24 61.16930 -150.48255 1977 ft 144 kts 89°
2026-05-05 21:25 61.16925 -150.46111 1901 ft 155 kts 89°
2026-05-05 21:25 61.16928 -150.43989 1600 ft 139 kts 89°
2026-05-05 21:25 61.16930 -150.42236 1497 ft 105 kts 89°
2026-05-05 21:25 61.16939 -150.40513 953 ft 149 kts 89°
2026-05-05 21:26 61.16933 -150.38298 1113 ft 157 kts 89°
2026-05-05 21:26 61.16941 -150.36016 1317 ft 160 kts 89°
2026-05-05 21:26 61.16940 -150.33697 1516 ft 162 kts 89°
2026-05-05 21:26 61.16945 -150.31345 1621 ft 166 kts 89°
2026-05-05 21:27 61.16945 -150.28893 1627 ft 174 kts 90°
2026-05-05 21:27 61.16947 -150.26371 1630 ft 169 kts 89°
2026-05-05 21:27 61.16949 -150.24171 1680 ft 140 kts 89°
2026-05-05 21:27 61.16953 -150.22270 1711 ft 132 kts 89°
2026-05-05 21:28 61.16958 -150.20338 1652 ft 136 kts 89°
2026-05-05 21:28 61.16958 -150.18371 1614 ft 137 kts 89°
2026-05-05 21:28 61.16959 -150.16462 1606 ft 130 kts 91°
2026-05-05 21:28 61.16965 -150.14557 1456 ft 132 kts 89°
2026-05-05 21:29 61.16956 -150.12923 1286 ft 91 kts 88°
2026-05-05 21:29 61.16964 -150.11678 951 ft 95 kts 89°
2026-05-05 21:29 61.16964 -150.10761 849 ft 92 kts 89°
2026-05-05 21:29 61.16957 -150.09438 855 ft 90 kts 89°
2026-05-05 21:30 61.16952 -150.08147 807 ft 89 kts 88°
2026-05-05 21:30 61.16962 -150.06865 732 ft 85 kts 88°
2026-05-05 21:30 61.16962 -150.05705 587 ft 82 kts 88°
2026-05-05 21:30 61.16979 -150.04585 420 ft 78 kts 85°
2026-05-05 21:31 61.16977 -150.03358 401 ft 88 kts 89°
2026-05-05 21:31 61.16973 -150.02178 316 ft 72 kts 88°
2026-05-05 21:31 61.16973 -150.01111 197 ft 74 kts 89°
2026-05-05 21:31 61.16975 -150.00039 141 ft 74 kts 89°
2026-05-05 21:32 61.16979 -149.99161 119 ft 50 kts 87°
2026-05-05 21:32 61.16983 -149.98679 114 ft 14 kts 64°
2026-05-05 21:32 61.17080 -149.98671 109 ft 8 kts 339°
2026-05-05 21:32 61.17082 -149.98673 109 ft 0 kts 339°
2026-05-05 21:33 61.17083 -149.98673 108 ft 0 kts 339°
2026-05-05 21:33 61.17084 -149.98674 109 ft 1 kts 340°
2026-05-05 21:33 61.17096 -149.98682 108 ft 0 kts 341°
2026-05-05 21:34 61.17100 -149.98684 110 ft 1 kts 351°
2026-05-05 21:34 61.17118 -149.98607 110 ft 17 kts 83°
2026-05-05 21:34 61.17114 -149.98322 110 ft 21 kts 87°
2026-05-05 21:34 61.17117 -149.98025 109 ft 21 kts 91°
2026-05-05 21:35 61.17117 -149.97719 105 ft 22 kts 91°
2026-05-05 21:35 61.17152 -149.97494 100 ft 17 kts 11°
2026-05-05 21:35 61.17266 -149.97494 100 ft 14 kts 357°
2026-05-05 21:35 61.17309 -149.97588 101 ft 5 kts 253°
2026-05-05 21:36 61.17289 -149.97636 102 ft 5 kts 221°
2026-05-05 21:36 61.17270 -149.97675 104 ft 2 kts 226°
2026-05-05 21:36 61.17267 -149.97682 104 ft 0 kts 225°